OPS 5798 DEB, 901

Orbit data source: Space-Track

OPS 5798 DEB, 901 is space debris in LEO originally from a launch on Tue, 06 Oct 1964 UTC launched from the Air Force Western Test Range (AFWTR). Debris objects in space refer to the collection of defunct objects orbiting the Earth. Examples of debris include non-operational satellites, rocket bodies, and fragments generated from explosions, collisions, or faulty payload assembly.

Loading next visibility...
Identifier
901, 1964-063D
Orbit
LEO
Country
Flag of USUS
Related business
Manufacturer
NAFI?
Mission
Spacecraft
Bus & Motor
Unknown
Mass
~20 kg wet, ~20 kg dry
Launch date (UTC)
1964-10-06 (62 years ago)
Launch vehicle
Unknown
Launch site
Air Force Western Test Range (AFWTR)
Object type
Payload
Rocket body
Debris
Shape & HBR
CYL, 0.6 m
Radar Cross Section
Medium (>0.1 m² and <1 m²)

Expand to show TLE details & history
Last TLE update: 15 hours ago

TLE from 15 hours ago
0 OPS 5798 DEB
1 00901U 64063D   26265.05630719  .00000108  00000-0  14425-3 0  9999
2 00901  90.2300  78.7302 0018434 194.3097 285.0862 13.55160266 59589
Epoch: 2026-09-22T01:21Z
TLE epoch observation values (Epoch: 2026-09-22T01:21:04.941Z)
Latitude
60.89634°
Longitude
-122.05661°
Altitude
1,060.268 km
Speed
7.329 km/s
True Right ascension
17h 16m 33s
True Declination
60° 45' 21"
Sunlit
Object was in daylight at epoch
Visualization orbit readout
Latitude
Unknown
Longitude
Unknown
Altitude
Unknown
Speed
Unknown
Apparent Right ascension
Unknown
Apparent Declination
Unknown
Sunlit
N/A
Visualization observer readout
Local Sidereal Time
09:02:53
Azimuth
Unknown
Elevation
Unknown
Doppler factor
Unknown
Orbital elements
Apogee altitude
1,064.069 km
Perigee altitude
1,036.682 km
Semi-major axis
7,428.512 km
Eccentricity
0.00184
Inclination
90.23°
RAAN
78.7302°
Arg. of periapsis
194.3097°
True anomaly
284.88212°
Mean anomaly
285.0862°
Eccentric anomaly
284.98417°
Mean motion
3.38993 °/min
Orbital period
106.2 mins
BSTAR
0.00014425
Loading maneuver chart data...
Computing Atmospheric mass density...
Loading historical data...
Loading historical data...
Loading historical data...
Loading historical data...
Loading historical data...
Loading historical data...
Loading historical data...

Documentation

Showing up to 5 results
|